Regional Weather Roundup
Issued by NWS

Home | Current Version | Previous Version | Text Only | Print | Product List | Glossary Off
Versions: 1 2 3 4 5 6 7 8 9 10 11 12 13 14 15 16 17 18 19 20 21 22 23 24 25 26 27 28 29 30 31 32 33 34 35 36 37 38 39 40 41 42 43 44 45 46 47 48 49 50

786
ASUS45 KBOU 081307
RWRCO

WEATHER ROUNDUP FOR COLORADO
NATIONAL WEATHER SERVICE DENVER/BOULDER CO
600 AM MST MON FEB 08 2016

NOTE: "FAIR" INDICATES FEW OR NO CLOUDS BELOW 12000 FEET WITH NO
SIGNIFICANT WEATHER AND/OR OBSTRUCTIONS TO VISIBILITY.

COZ001>005-013-030-031-081400-
...NORTHWEST COLORADO...

CITY           SKY/WX    TMP DP  RH WIND       PRES   REMARKS
CRAIG          CLOUDY    -5 -10  79 CALM      30.56F
HAYDEN         CLOUDY    14  10  85 E7        30.53F WCI   4
MEEKER         CLOUDY     6   2  83 CALM      30.56R
MOUNT WERNER   NOT AVBL
STEAMBOAT SPGS CLOUDY    11   8  89 E5        30.54S WCI   2
WALDEN         CLOUDY    21  12  68 S5        30.46S WCI  15
$$

COZ006>008-011-081400-
...WEST CENTRAL VALLEYS...

CITY           SKY/WX    TMP DP  RH WIND       PRES   REMARKS
GRAND JUNCTION CLOUDY    13  11  92 CALM      30.57R
MONTROSE       CLOUDY    15   9  76 S9        30.59R WCI   3
EAGLE          CLOUDY     9   9 100 E8        30.62R WCI  -4
RIFLE          CLOUDY    10   6  84 CALM      30.60R
DELTA          CLOUDY    18  15  88 CALM      30.60R
NUCLA          CLOUDY    19  14  79 E3        30.57R
$$

COZ017>023-064>068-081400-
...SOUTHWEST COLORADO...

CITY           SKY/WX    TMP DP  RH WIND       PRES   REMARKS
DURANGO        CLOUDY     9   6  88 N3        30.45R
CORTEZ         CLOUDY    14  10  84 NE3       30.46R
PAGOSA SPRINGS CLOUDY   N/A N/A N/A CALM      30.44S
TELLURIDE      NOT AVBL
WOLF CREEK PAS CLOUDY    23   5  46 NE3       30.52R
$$

COZ009-010-012-014-032>034-037-058>063-081400-
...CENTRAL COLORADO...

CITY           SKY/WX    TMP DP  RH WIND       PRES   REMARKS
ASPEN          CLOUDY    14   7  73 SW9       30.53F WCI   2
BUENA VISTA    CLOUDY    30  13  49 N17G24    30.40S WCI  18
COPPER MTN     CLOUDY    19  10  68 W8G18     30.49S WCI   9
BERTHOUD PASS  HAZE      10   0  61 NW37G44   30.40R VSB 1/2 WCI -14
COTTONWOOD PAS CLOUDY    30  10  43 CALM      30.42R
GUNNISON       CLOUDY   -11 -20  64 CALM      30.57S
KREMMLING      CLOUDY    21  10  63 CALM      30.53R
LEADVILLE      CLOUDY    11   6  81 NE7       30.45F WCI   0
MONARCH PASS   CLOUDY    12   9  85 MISG      30.56R
SALIDA         NOT AVBL
SUNLIGHT       CLOUDY    21  14  73 NW6         N/A  WCI  14
WILKERSON PASS CLOUDY    27  14  59 NW29G59   30.33R WCI  11
$$

COZ069>075-081400-
...SAN LUIS VALLEY/SANGRE DE CRISTO MOUNTAINS...

CITY           SKY/WX    TMP DP  RH WIND       PRES   REMARKS
ALAMOSA        CLOUDY     9   4  80 W6        30.43R WCI  -1
LA VETA PASS   CLOUDY    21   9  58 MISG      30.38R
SAGUACHE       CLOUDY    27  12  54 NW17      30.45S WCI  14
$$

COZ035-036-038>040-081400-
...NORTHERN COLORADO FRONT RANGE...

CITY           SKY/WX    TMP DP  RH WIND       PRES   REMARKS
DENVER INTL AP CLOUDY    18  10  71 S9        30.33R WCI   7
DMNS CITY PARK   N/A     22  15  74 N1G8      30.33R
AURORA         PTCLDY    20  13  72 S8        30.33R WCI  10
FRONT RANGE AP NOT AVBL
ERIE MUNI ARPT CLOUDY    17  14  88 CALM      30.35R
BOULDER MUN AP CLOUDY    21  18  86 CALM      30.34R
CENTENNIAL     CLOUDY    19  13  77 SE8       30.31R WCI   9
BROOMFIELD     PTCLDY    23  19  86 W5        30.33R WCI  17
FORT COLLINS   CLOUDY    19  16  86 N3        30.36R
LONGMONT       CLOUDY    17  13  82 CALM      30.37R
$$

COZ041-046-047-076>085-087-088-081400-
...PIKES PEAK/PALMER DIVIDE AND SOUTHERN FOOTHILLS...

CITY           SKY/WX    TMP DP  RH WIND       PRES   REMARKS
COLO. SPRINGS  CLOUDY    22  19  89 CALM      30.34F
A. F. ACADEMY  CLOUDY    19  18  97 NW5       30.31F WCI  12
SCHRIEVER AFB  NOT AVBL
ELLICOTT       NOT AVBL
FALCON         FOG       19  18  96 W8        30.31F VSB 1/2 WCI   8
FORT CARSON    CLOUDY    23  19  85 S2        30.34S
LIMON          CLOUDY    16   9  74 W12       30.35R WCI   3
MONUMENT HILL  CLOUDY    19  14  79 NW7       30.31S WCI  10
TRINIDAD       CLOUDY    19  16  88 SW13      30.37F WCI   6
$$

COZ042>045-048>051-090-091-081400-
...NORTHEAST COLORADO...

CITY           SKY/WX    TMP DP  RH WIND       PRES   REMARKS
GREELEY ARPT   CLOUDY    12   9  85 CALM      30.37S
AKRON          CLOUDY    20  15  81 NW15      30.33R WCI   6
BURLINGTON     CLOUDY    22  12  65 NW17      30.34R WCI   8
WRAY           CLEAR     28   8  43 NW17      30.34S WCI  16
STERLING       CLOUDY    27  18  69 W6        30.37R WCI  20
HOLYOKE        CLEAR     30  12  47 NW22G30   30.33R WCI  17
FORT MORGAN    CLOUDY    16  13  88 NW7       30.39R WCI   6
$$

COZ086-089-092>099-081400-
...SOUTHEAST COLORADO...

CITY           SKY/WX    TMP DP  RH WIND       PRES   REMARKS
PUEBLO         CLOUDY    23  18  81 CALM      30.38F
LA JUNTA       CLOUDY    24  19  81 W13       30.40R WCI  12
LAMAR          CLEAR     20  17  88 W9        30.39R WCI   9
SPRINGFIELD      N/A     22  15  75 W12       30.39R WCI  10
$$




USA.gov is the U.S. government's official web portal to all federal, state and local government web resources and services.